• In Hungary
  • List of Countries
  • For 7 days
  • Water Temperature
  • Satellite Maps
  • Weather Map
  • News
  • Weather Widgets
  • user-avatar
    Login

    Hourly Weather Sinemorec

    Today, 23 October, Monday

    Time Temperature Precipitation Wind Pressure Humidity
    00:00 +14°C° 0 mm 4 mps 759 mmHg 84%
    01:00 +14°C° 0 mm 4 mps 758 mmHg 87%
    02:00 +13°C° 0 mm 4 mps 758 mmHg 90%
    03:00 +13°C° 0 mm 4 mps 757 mmHg 91%
    04:00 +13°C° 0 mm 4 mps 757 mmHg 92%
    05:00 +13°C° 0 mm 5 mps 757 mmHg 93%
    06:00 +14°C° 0 mm 5 mps 756 mmHg 91%
    07:00 +14°C° 0 mm 5 mps 756 mmHg 90%
    08:00 +15°C° 0 mm 5 mps 755 mmHg 86%
    09:00 +17°C° 0 mm 5 mps 755 mmHg 78%
    10:00 +19°C° 0 mm 6 mps 755 mmHg 70%
    11:00 +21°C° 0 mm 6 mps 754 mmHg 62%
    12:00 +22°C° 0 mm 6 mps 754 mmHg 57%
    13:00 +23°C° 0 mm 6 mps 753 mmHg 51%
    14:00 +23°C° 0 mm 5 mps 752 mmHg 50%
    15:00 +22°C° 0 mm 5 mps 752 mmHg 51%
    16:00 +21°C° 0 mm 4 mps 752 mmHg 53%
    17:00 +20°C° 0 mm 4 mps 752 mmHg 55%
    18:00 +20°C° 0 mm 4 mps 751 mmHg 56%
    19:00 +19°C° 0 mm 4 mps 751 mmHg 57%
    20:00 +18°C° 0 mm 4 mps 751 mmHg 59%
    21:00 +18°C° 0 mm 4 mps 750 mmHg 57%
    22:00 +18°C° 0 mm 4 mps 750 mmHg 56%
    23:00 +18°C° 0 mm 4 mps 750 mmHg 55%

    Tomorrow, 24 October, Tuesday

    Time Temperature Precipitation Wind Pressure Humidity
    00:00 +18°C° 0 mm 4 mps 750 mmHg 56%
    01:00 +18°C° 0 mm 4 mps 750 mmHg 57%
    02:00 +18°C° 0 mm 4 mps 749 mmHg 58%
    03:00 +17°C° 0.4 mm 5 mps 749 mmHg 64%
    04:00 +17°C° 0.4 mm 5 mps 749 mmHg 70%
    05:00 +17°C° 0.4 mm 6 mps 749 mmHg 77%
    06:00 +17°C° 0.3 mm 6 mps 749 mmHg 75%
    07:00 +17°C° 0.3 mm 6 mps 749 mmHg 73%
    08:00 +18°C° 0.3 mm 7 mps 750 mmHg 71%
    09:00 +20°C° 0.1 mm 7 mps 750 mmHg 66%
    10:00 +21°C° 0.1 mm 7 mps 750 mmHg 61%
    11:00 +22°C° 0.1 mm 7 mps 751 mmHg 56%
    12:00 +22°C° 0.2 mm 7 mps 751 mmHg 56%
    13:00 +22°C° 0.2 mm 7 mps 751 mmHg 57%
    14:00 +22°C° 0.2 mm 7 mps 751 mmHg 58%
    15:00 +21°C° 0.3 mm 7 mps 751 mmHg 62%
    16:00 +20°C° 0.3 mm 6 mps 752 mmHg 66%
    17:00 +19°C° 0.3 mm 6 mps 752 mmHg 70%
    18:00 +17°C° 0.4 mm 5 mps 753 mmHg 73%
    19:00 +17°C° 0.4 mm 5 mps 753 mmHg 76%
    20:00 +16°C° 0.4 mm 5 mps 754 mmHg 79%
    21:00 +16°C° 0.5 mm 5 mps 754 mmHg 81%
    22:00 +17°C° 0.5 mm 4 mps 755 mmHg 83%
    23:00 +15°C° 0.5 mm 4 mps 755 mmHg 85%

    Day after tomorrow, 25 October, Wednesday

    Time Temperature Precipitation Wind Pressure Humidity
    00:00 +17°C° 0.6 mm 4 mps 755 mmHg 85%
    01:00 +16°C° 0.6 mm 5 mps 756 mmHg 85%
    02:00 +16°C° 0.6 mm 5 mps 756 mmHg 86%
    03:00 +16°C° 1.7 mm 6 mps 757 mmHg 87%
    04:00 +16°C° 1.7 mm 7 mps 757 mmHg 88%
    05:00 +15°C° 1.7 mm 8 mps 757 mmHg 90%
    06:00 +15°C° 2.2 mm 9 mps 758 mmHg 90%
    07:00 +15°C° 2.2 mm 9 mps 758 mmHg 90%
    08:00 +14°C° 2.2 mm 10 mps 759 mmHg 90%
    09:00 +13°C° 0.5 mm 10 mps 760 mmHg 90%
    10:00 +13°C° 0.5 mm 11 mps 760 mmHg 90%
    11:00 +12°C° 0.5 mm 11 mps 761 mmHg 90%
    12:00 +12°C° 0.5 mm 11 mps 761 mmHg 89%
    13:00 +11°C° 0.5 mm 11 mps 761 mmHg 88%
    14:00 +11°C° 0.5 mm 11 mps 762 mmHg 88%
    15:00 +11°C° 0.4 mm 11 mps 762 mmHg 87%
    16:00 +11°C° 0.4 mm 11 mps 762 mmHg 87%
    17:00 +9°C° 0.4 mm 11 mps 763 mmHg 87%
    18:00 +9°C° 0.4 mm 11 mps 763 mmHg 87%
    19:00 +9°C° 0.4 mm 11 mps 764 mmHg 86%
    20:00 +9°C° 0.4 mm 11 mps 765 mmHg 85%
    21:00 +9°C° 0.5 mm 10 mps 765 mmHg 85%
    22:00 +9°C° 0.5 mm 10 mps 765 mmHg 84%
    23:00 +8°C° 0.5 mm 10 mps 766 mmHg 83%

    26 October, Thursday

    Time Temperature Precipitation Wind Pressure Humidity
    00:00 +8°C° 0.2 mm 10 mps 766 mmHg 83%
    01:00 +8°C° 0.2 mm 9 mps 766 mmHg 82%
    02:00 +8°C° 0.2 mm 9 mps 766 mmHg 81%
    03:00 +8°C° 0.1 mm 9 mps 766 mmHg 81%
    04:00 +9°C° 0.1 mm 8 mps 767 mmHg 82%
    05:00 +7°C° 0.1 mm 8 mps 767 mmHg 82%
    06:00 +7°C° 0 mm 8 mps 767 mmHg 79%
    07:00 +7°C° 0 mm 8 mps 768 mmHg 77%
    08:00 +7°C° 0 mm 8 mps 768 mmHg 75%
    09:00 +10°C° 0 mm 7 mps 768 mmHg 71%
    10:00 +11°C° 0 mm 6 mps 768 mmHg 67%
    11:00 +13°C° 0 mm 6 mps 768 mmHg 62%
    12:00 +14°C° 0 mm 5 mps 768 mmHg 61%
    13:00 +14°C° 0 mm 5 mps 768 mmHg 59%
    14:00 +15°C° 0 mm 4 mps 768 mmHg 57%
    15:00 +14°C° 0 mm 4 mps 768 mmHg 62%
    16:00 +13°C° 0 mm 3 mps 767 mmHg 66%
    17:00 +13°C° 0 mm 2 mps 767 mmHg 71%
    18:00 +12°C° 0 mm 2 mps 767 mmHg 74%
    19:00 +12°C° 0 mm 2 mps 767 mmHg 76%
    20:00 +11°C° 0 mm 1 mps 768 mmHg 79%
    21:00 +11°C° 0 mm 1 mps 767 mmHg 79%
    22:00 +11°C° 0 mm 1 mps 767 mmHg 79%
    23:00 +11°C° 0 mm 1 mps 767 mmHg 79%

    27 October, Friday

    Time Temperature Precipitation Wind Pressure Humidity
    00:00 +11°C° 0 mm 1 mps 767 mmHg 79%
    01:00 +10°C° 0 mm 1 mps 766 mmHg 80%
    02:00 +10°C° 0 mm 1 mps 766 mmHg 80%
    03:00 +10°C° 0 mm 1 mps 766 mmHg 81%
    04:00 +10°C° 0 mm 1 mps 765 mmHg 82%
    05:00 +10°C° 0 mm 1 mps 765 mmHg 82%
    06:00 +11°C° 0 mm 1 mps 765 mmHg 79%
    07:00 +12°C° 0 mm 1 mps 765 mmHg 76%
    08:00 +12°C° 0 mm 2 mps 765 mmHg 73%
    09:00 +14°C° 0 mm 1 mps 764 mmHg 66%
    10:00 +16°C° 0 mm 1 mps 764 mmHg 59%
    11:00 +19°C° 0 mm 1 mps 763 mmHg 52%
    12:00 +20°C° 0 mm 1 mps 763 mmHg 50%
    13:00 +20°C° 0 mm 2 mps 762 mmHg 47%
    14:00 +20°C° 0 mm 2 mps 761 mmHg 45%
    15:00 +19°C° 0 mm 2 mps 761 mmHg 50%
    16:00 +18°C° 0 mm 2 mps 760 mmHg 55%
    17:00 +16°C° 0 mm 2 mps 759 mmHg 60%
    18:00 +16°C° 0 mm 3 mps 759 mmHg 62%
    19:00 +14°C° 0 mm 3 mps 759 mmHg 65%
    20:00 +13°C° 0 mm 3 mps 759 mmHg 67%
    21:00 +13°C° 0 mm 3 mps 758 mmHg 67%
    22:00 +13°C° 0 mm 3 mps 758 mmHg 67%
    23:00 +12°C° 0 mm 3 mps 758 mmHg 67%

    28 October, Saturday

    Time Temperature Precipitation Wind Pressure Humidity
    00:00 +12°C° 0 mm 3 mps 757 mmHg 67%
    01:00 +12°C° 0 mm 3 mps 756 mmHg 66%
    02:00 +12°C° 0 mm 3 mps 756 mmHg 66%
    03:00 +12°C° 0 mm 3 mps 755 mmHg 67%
    04:00 +12°C° 0 mm 3 mps 755 mmHg 67%
    05:00 +12°C° 0 mm 3 mps 754 mmHg 68%
    06:00 +12°C° 0 mm 3 mps 754 mmHg 68%
    07:00 +13°C° 0 mm 3 mps 754 mmHg 68%
    08:00 +13°C° 0 mm 4 mps 754 mmHg 68%
    09:00 +15°C° 0 mm 4 mps 754 mmHg 63%
    10:00 +17°C° 0 mm 4 mps 754 mmHg 58%
    11:00 +18°C° 0 mm 4 mps 754 mmHg 54%
    12:00 +19°C° 0 mm 5 mps 754 mmHg 54%
    13:00 +19°C° 0 mm 5 mps 754 mmHg 54%
    14:00 +19°C° 0 mm 6 mps 753 mmHg 54%
    15:00 +17°C° 0 mm 6 mps 754 mmHg 60%
    16:00 +15°C° 0 mm 7 mps 754 mmHg 65%
    17:00 +14°C° 0 mm 7 mps 755 mmHg 71%
    18:00 +12°C° 0.2 mm 7 mps 755 mmHg 73%
    19:00 +13°C° 0.2 mm 6 mps 755 mmHg 76%
    20:00 +11°C° 0.2 mm 6 mps 756 mmHg 78%
    21:00 +12°C° 0.1 mm 5 mps 756 mmHg 78%
    22:00 +12°C° 0.1 mm 5 mps 756 mmHg 79%
    23:00 +12°C° 0.1 mm 5 mps 756 mmHg 79%

    29 October, Sunday

    Time Temperature Precipitation Wind Pressure Humidity
    00:00 +11°C° 0 mm 4 mps 756 mmHg 77%
    01:00 +11°C° 0 mm 4 mps 756 mmHg 76%
    02:00 +11°C° 0 mm 4 mps 756 mmHg 74%
    03:00 +11°C° 0 mm 3 mps 756 mmHg 75%
    04:00 +11°C° 0 mm 3 mps 756 mmHg 76%
    05:00 +11°C° 0 mm 3 mps 755 mmHg 77%
    06:00 +11°C° 0.2 mm 3 mps 755 mmHg 79%
    07:00 +10°C° 0.2 mm 2 mps 755 mmHg 81%
    08:00 +10°C° 0.2 mm 2 mps 755 mmHg 82%
    09:00 +10°C° 0.6 mm 3 mps 755 mmHg 84%
    10:00 +10°C° 0.6 mm 3 mps 754 mmHg 85%
    11:00 +10°C° 0.6 mm 3 mps 754 mmHg 87%
    12:00 +10°C° 1.2 mm 4 mps 753 mmHg 87%
    13:00 +9°C° 1.2 mm 5 mps 752 mmHg 88%
    14:00 +9°C° 1.2 mm 6 mps 752 mmHg 88%
    15:00 +9°C° 2.5 mm 7 mps 751 mmHg 88%
    16:00 +7°C° 2.5 mm 8 mps 751 mmHg 88%
    17:00 +7°C° 2.5 mm 9 mps 750 mmHg 88%
    18:00 +7°C° 1.8 mm 9 mps 750 mmHg 87%
    19:00 +7°C° 1.8 mm 10 mps 750 mmHg 86%
    20:00 +6°C° 1.8 mm 10 mps 750 mmHg 85%
    21:00 +7°C° 1.3 mm 10 mps 750 mmHg 85%
    22:00 +7°C° 1.3 mm 10 mps 751 mmHg 85%
    23:00 +7°C° 1.3 mm 9 mps 751 mmHg 85%
    Show more